User: anonymous   Login
Location: *
(51.2167°N, 10.0667°E)
Time: 00:23:32
(UTC+00:00)
Language:

Lacrosse 4 Rocket - Orbit

View from above orbital plane
View from above orbital plane
View from above satellite
View from above satellite

Ground track
Ground track

The orbit data is extracted from the following two-line orbital elements,

1 26474U 00047B   20047.43036064 +.00000068 +00000-0 +16846-4 0  9996
2 26474 067.9935 051.5629 0058622 327.3251 032.4269 14.95913444060992
Epoch (UTC): 16 February 2020 10:19:43
Eccentricity: 0.0058622
inclination: 67.9935°
perigee height: 539 km
apogee height: 620 km
right ascension of ascending node: 51.5629°
argument of perigee: 327.3251°
revolutions per day: 14.95913444
mean anomaly at epoch: 32.4269°
orbit number at epoch: 6099

The dashed part of the orbit path shows where the satellite is in the earth's shadow,  

DLR